Flag for Austria Weather past 2 weeks in Schwechat, Lower Austria, Austria

54 °F

Partly sunny.

Feels Like: 47 °F
Forecast: 40 / 56 °F
Wind: 31 mph from West

Location: Vienna Schwechat-Flughafen Airport

Current Time: Dec 1, 2015 at 10:49:53 AM

Latest Report: Dec 1, 2015 at 9:50 AM

Visibility: N/A

Pressure: 30.04 "Hg

Humidity: 67%

Dew point: 43 °F

Location of SchwechatLocation

Historic Weather in Schwechat — Graph


Schwechat temperature yesterday

Maximum temperature yesterday: 55 °F (at 3:50 AM)
Minimum temperature yesterday: 45 °F (at 4:50 PM)
Average temperature yesterday: 53 °F

Past Weeks' High & Low Weather Summary

High68 °F (Nov 18, 10:50 AM)100% (Nov 20, 4:50 PM)30.33 "Hg (Nov 20, 4:50 PM)
Low23 °F (Nov 24, 5:50 AM)32% (Nov 29, 12:20 PM)29.39 "Hg (Nov 20, 9:20 PM)
Average45 °F70%29.93 "Hg
* Reported Nov 16 8:20 AM — Dec 1 8:50 AM, Schwechat, Weather by CustomWeather, © 2015

Note: Actual official high and low records may vary slightly from our data, if they occured in-between our weather recording intervals... More about our weather records


Schwechat weather history for previous 24 hours

Time TempWeatherWind HumidityBarometerVisibility
8:50 AM
Tue, Dec 1
54 °FPartly sunny.39 mph63%30.01 "HgN/A
8:20 AM54 °FBroken clouds.36 mph63%30.01 "HgN/A
7:50 AM54 °FBroken clouds.37 mph63%30.01 "HgN/A
7:20 AM54 °FPassing clouds.37 mph63%29.98 "HgN/A
6:50 AM54 °FClear.36 mph63%29.98 "Hg10 mi
5:50 AM52 °FClear.33 mph67%29.98 "Hg10 mi
4:50 AM52 °FSprinkles. Passing clouds.33 mph67%29.95 "HgN/A
4:20 AM54 °FPassing clouds.37 mph58%29.95 "HgN/A
3:50 AM52 °FPassing clouds.35 mph62%29.92 "HgN/A
3:20 AM52 °FSprinkles. Passing clouds.36 mph67%29.92 "HgN/A
2:50 AM54 °FPartly cloudy.33 mph58%29.95 "HgN/A
2:20 AM52 °FSprinkles. Passing clouds.31 mph67%29.95 "HgN/A
1:50 AM54 °FSprinkles. Passing clouds.30 mph58%29.95 "HgN/A
12:50 AM55 °FPassing clouds.28 mph51%29.98 "HgN/A
12:20 AM55 °FPartly cloudy.26 mph51%29.98 "HgN/A
11:20 PM
Mon, Nov 30
55 °FOvercast.22 mph51%30.01 "HgN/A
10:50 PM55 °FPartly cloudy.20 mph51%30.01 "HgN/A
10:20 PM54 °FPassing clouds.17 mph58%30.01 "HgN/A
9:50 PM54 °FPassing clouds.22 mph58%30.04 "HgN/A
9:20 PM54 °FPassing clouds.24 mph58%30.04 "HgN/A
8:50 PM54 °FPassing clouds.22 mph58%30.04 "HgN/A
8:20 PM54 °FPassing clouds.21 mph58%30.04 "HgN/A
7:50 PM54 °FClear.21 mph58%30.07 "Hg10 mi
7:20 PM52 °FPartly cloudy.18 mph67%30.07 "HgN/A
6:50 PM50 °FSprinkles. Passing clouds.17 mph76%30.09 "HgN/A
6:20 PM45 °FPassing clouds.3 mph93%30.09 "HgN/A
5:50 PM45 °FPassing clouds.6 mph93%30.09 "HgN/A
5:20 PM45 °FPartly cloudy.6 mph93%30.09 "HgN/A
4:50 PM45 °FPartly cloudy.12 mph93%30.09 "HgN/A
4:20 PM46 °FSprinkles. Partly cloudy.15 mph87%30.09 "HgN/A
3:50 PM46 °FSprinkles. Broken clouds.18 mph87%30.09 "HgN/A
3:20 PM46 °FSprinkles. Broken clouds.16 mph93%30.09 "Hg4 mi
2:50 PM46 °FRain showers. Partly sunny.20 mph93%30.09 "Hg2 mi
2:20 PM54 °FSprinkles. Broken clouds.31 mph67%30.07 "HgN/A
1:50 PM55 °FBroken clouds.35 mph59%30.04 "HgN/A
1:20 PM55 °FPartly sunny.35 mph59%30.04 "HgN/A
12:50 PM54 °FPartly sunny.31 mph63%30.04 "HgN/A
12:20 PM54 °FPartly sunny.32 mph58%30.04 "HgN/A
11:50 AM55 °FPartly sunny.35 mph55%30.04 "HgN/A
11:20 AM55 °FPartly sunny.32 mph55%30.04 "HgN/A
10:50 AM55 °FPartly sunny.37 mph55%30.04 "HgN/A
10:20 AM55 °FSunny.36 mph55%30.01 "Hg10 mi
Weather by CustomWeather, © 2015

See weather overviewHow to use our weather pages